Simultaneous Nadir Overpasses (SNOs) Predictions

Prediction of SNOs between AQUA and METOP-B Satellite Orbit:

Table of predicted SNOs for the next 14.0 days since TLE Epoch: 7/8/2023
Index Date (AQUA) Time (AQUA) Lat,Lon (AQUA) SZA (AQUA ) Date (METOP-B) Time (METOP-B) Lat,Lon (METOP-B) SZA (METOP-B ) Distance(km) Time Diff (sec)
1 07/10/2023 12:13:41 -74.63, 172.44 127.60 07/10/2023 12:13:14 -74.61, 172.49 127.62 2.86 27
2 07/10/2023 13:03:07 74.66, -20.00 52.44 07/10/2023 13:03:52 74.69, -19.96 52.46 3.34 45
3 07/13/2023 05:16:46 74.48, 97.07 52.60 07/13/2023 05:15:34 74.43, 96.43 52.58 19.82 72
4 07/13/2023 06:06:13 -74.65, -95.71 127.21 07/13/2023 06:06:11 -74.66, -95.61 127.20 3.16 2
5 07/13/2023 06:55:39 74.69, 71.84 52.84 07/13/2023 06:56:50 74.70, 71.81 52.84 1.10 71
6 07/15/2023 23:09:19 74.60,-171.33 53.16 07/15/2023 23:08:28 74.62,-171.31 53.18 2.01 51
7 07/15/2023 23:58:44 -74.67, -3.85 126.77 07/15/2023 23:59:09 -74.66, -3.87 126.78 0.91 25
8 07/18/2023 17:01:48 74.62, -79.47 53.64 07/18/2023 17:01:24 74.66, -79.46 53.68 3.74 24
9 07/18/2023 17:51:13 -74.68, 88.02 126.29 07/18/2023 17:52:05 -74.70, 87.99 126.28 2.09 52
10 07/21/2023 10:04:52 -74.63,-155.23 125.85 07/21/2023 10:03:43 -74.61,-155.17 125.87 3.19 69
11 07/21/2023 10:54:18 74.69, 12.27 54.22 07/21/2023 10:54:21 74.68, 12.37 54.21 2.96 3



Historial Predications of SNOs between AQUA and METOP-B
